Weather History for PAMR - February, 2013

Change the Weather History Date:

Tuesday, February 26, 2013

  Actual Average Record
Temperature  
Mean Temperature 30 °F -  
Max Temperature 37 °F 30 °F 34 °F (2014)
Min Temperature 23 °F 16 °F 18 °F (2015)
Degree Days  
Heating Degree Days 35    
Moisture  
Dew Point 16 °F    
Average Humidity 57    
Maximum Humidity 81    
Minimum Humidity 41    
Precipitation  
Precipitation 0.00 in - - ()
Sea Level Pressure  
Sea Level Pressure 29.43 in    
Wind  
Wind Speed 3 mph (North)    
Max Wind Speed 10 mph    
Max Gust Speed -    
Visibility 10 miles    
Events      
Averages and records for this station are not official NWS values.
T = Trace of Precipitation, MM = Missing Value Source: NWS Daily Summary

Daily Weather History Graph

Daily Weather History Graph

Search for Another Location

Airport or City:

Trip Planner

Search our weather history database for the weather conditions in past years. The results will help you decide how hot, cold, wet, or windy it might be!

Date:

Astronomy

Feb. 26, 2013 Rise Set
Actual Time 8:07 AM AKST 6:17 PM AKST
Civil Twilight 7:24 AM AKST 7:01 PM AKST
Nautical Twilight 6:34 AM AKST 7:51 PM AKST
Astronomical Twilight 5:43 AM AKST 8:42 PM AKST
Moon 8:24 PM AKST (2/26) 7:45 AM AKST (2/26)
Length of Visible Light 11h 37m
Length of Day
10h 09m
Full, 99% of the Moon is Illuminated
Feb 26
Full
Mar 4
Last Quarter
Mar 11
New
Mar 19
First Quarter
Mar 27
Full

Hourly Weather History & Observations

Time (AKST) Temp. Windchill Dew Point Humidity Pressure Visibility Wind Dir Wind Speed Gust Speed Precip Events Conditions
12:53 AM 28.9 °F 25.2 °F 17.1 °F 61% 29.57 in 10.0 mi ENE 3.5 mph - N/A   Overcast
1:53 AM 27.0 °F 23.0 °F 17.1 °F 66% 29.57 in 10.0 mi West 3.5 mph - N/A   Overcast
3:53 AM 27.0 °F - 17.1 °F 66% 29.55 in 10.0 mi Calm Calm - N/A   Overcast
4:53 AM 26.1 °F - 18.0 °F 71% 29.52 in 10.0 mi Calm Calm - N/A   Overcast
5:53 AM 24.1 °F - 19.0 °F 81% 29.50 in 10.0 mi Calm Calm - N/A   Overcast
6:53 AM 26.1 °F - 18.0 °F 71% 29.49 in 10.0 mi Calm Calm - N/A   Overcast
7:53 AM 27.0 °F - 18.0 °F 69% 29.48 in 10.0 mi Calm Calm - N/A   Scattered Clouds
8:53 AM 23.0 °F - 17.1 °F 78% 29.47 in 10.0 mi Calm Calm - N/A   Clear
9:53 AM 27.0 °F - 18.0 °F 69% 29.47 in 10.0 mi Calm Calm - N/A   Partly Cloudy
10:53 AM 32.0 °F 26.4 °F 16.0 °F 52% 29.45 in 10.0 mi NNE 5.8 mph - N/A   Mostly Cloudy
11:53 AM 34.0 °F 29.8 °F 16.0 °F 48% 29.44 in 10.0 mi NNE 4.6 mph - N/A   Scattered Clouds
12:53 PM 34.0 °F 31.0 °F 16.0 °F 48% 29.44 in 10.0 mi NNW 3.5 mph - N/A   Mostly Cloudy
1:53 PM 37.9 °F 34.4 °F 16.0 °F 41% 29.41 in 10.0 mi North 4.6 mph - N/A   Overcast
2:53 PM 35.1 °F - 17.1 °F 48% 29.40 in 10.0 mi Calm Calm - N/A   Overcast
3:53 PM 37.0 °F - 17.1 °F 44% 29.38 in 10.0 mi Calm Calm - N/A   Clear
4:53 PM 37.0 °F 34.5 °F 17.1 °F 44% 29.36 in 10.0 mi Variable 3.5 mph - N/A   Clear
5:53 PM 35.1 °F 29.3 °F 17.1 °F 48% 29.36 in 10.0 mi North 6.9 mph - N/A   Partly Cloudy
6:53 PM 32.0 °F 27.5 °F 14.0 °F 48% 29.35 in 10.0 mi North 4.6 mph - N/A   Scattered Clouds
7:53 PM 30.9 °F - 14.0 °F 50% 29.34 in 10.0 mi Calm Calm - N/A   Scattered Clouds
8:53 PM 30.0 °F 21.1 °F 15.1 °F 54% 29.31 in 10.0 mi NNE 10.4 mph - N/A   Scattered Clouds
9:53 PM 28.0 °F - 16.0 °F 61% 29.31 in 10.0 mi Calm Calm - N/A   Mostly Cloudy
10:53 PM 30.9 °F 22.2 °F 12.9 °F 47% 29.31 in 10.0 mi North 10.4 mph - N/A   Mostly Cloudy
11:53 PM 28.9 °F 22.8 °F 14.0 °F 54% 29.30 in 10.0 mi NNE 5.8 mph - N/A   Mostly Cloudy